Location: Fluertsh�userhof
(48.7537°N, 10.3850°E)
Time: 14:39:35
(UTC+00:00)

H-2A R/B - Pass Details

Date: 18 September 2020
Orbit: 734 x 836 km, 98.2° (Epoch: 23 October)

Event Time Altitude Azimuth Distance (km) Brightness Sun altitude
Rises 19:14:00 0° 194° (SSW) 3,160 5.1 -18.3°
Reaches altitude 10° 19:16:31 10° 205° (SSW) 2,250 4.4 -18.7°
Maximum altitude 19:20:49 29° 266° (W) 1,346 3.8 -19.4°
Drops below altitude 10° 19:25:14 10° 327° (NNW) 2,309 5.3 -20.0°
Sets 19:27:52 0° 338° (NNW) 3,257 6.0 -20.4°
